Regional Weather Roundup
Issued by NWS Charleston, SC

Current Version | Previous Version | Graphics & Text | Print | Product List | Glossary On
Versions: 1 2 3 4 5 6 7 8 9 10 11 12 13 14 15 16 17 18 19 20 21 22 23 24 25 26 27 28 29 30 31 32 33 34 35 36 37 38 39 40 41 42 43 44 45 46 47 48 49 50
000
ASUS42 KCHS 201312
RWRCHS

REGIONAL WEATHER ROUNDUP
NATIONAL WEATHER SERVICE CHARLESTON SC
900 AM EDT SUN AUG 20 2017

NOTE: "FAIR" INDICATES FEW OR NO CLOUDS BELOW 12,000 FEET WITH NO
SIGNIFICANT WEATHER AND/OR OBSTRUCTIONS TO VISIBILITY.

NOT ALL STATIONS ARE QUALITY CONTROLLED. USE DATA WITH CAUTION...
ESPECIALLY DEWPOINT OBSERVATIONS.

SCZ027-030-031-034>040-042>050-201400-
...SOUTHEAST SOUTH CAROLINA...

CITY           SKY/WX    TMP DP  RH WIND       PRES   REMARKS
N CHARLESTON   CLOUDY    81  79  94 W3        30.05S HX  90
WATERFRONT PRK   N/A     83  80  90 CALM      29.89S HX  96
JOHNS ISLAND   FAIR      82  79  89 CALM      30.06S HX  93
PINOPOLIS        N/A     81  79  94 VRB2      29.99R
MONCKS CORNER  FAIR      77  75  94 CALM      30.05F FOG
SUMMERVILLE    FOG       77  77 100 CALM      30.06F VSB 3/4
BEAUFORT MCAS  MOSUNNY   83  79  88 SE6       30.06S HX  94
BEAUFORT ARPT  FAIR      81  75  83 CALM      30.05S
HILTON HEAD IS NOT AVBL
WALTERBORO     MOSUNNY   79  77  94 CALM      30.07S
ALLENDALE      NOT AVBL

...SOUTHERN MIDLANDS AND PEE DEE...

CITY           SKY/WX    TMP DP  RH WIND       PRES   REMARKS
GEORGETOWN     FAIR      79  79 100 SW3       30.07R
KINGSTREE      FAIR      81  77  89 CALM      30.06R
ORANGEBURG     SUNNY     80  70  71 CALM      30.07R
BARNWELL       FAIR      82  73  74 CALM      30.07R
AIKEN          FAIR      79  70  73 N5        30.11R
MANNING        FAIR      82  75  78 N7        30.06R
COLUMBIA       CLOUDY    82  72  71 NE3       30.06R
SUMTER         SUNNY     81  70  68 CALM      30.05R
FLORENCE       MOSUNNY   80  75  84 CALM      30.07R
MYRTLE BEACH   MOSUNNY   82  79  89 SW7       30.08R HX  93
N MYRTLE BEACH MOSUNNY   83  79  88 VRB3      30.07R HX  94

$$

GAZ063-065-086>088-099>101-113>116-118-119-134>141-150-201400-
...SOUTHEAST GEORGIA...

CITY           SKY/WX    TMP DP  RH WIND       PRES   REMARKS
SAVANNAH ARPT  MOSUNNY   82  75  79 S6        30.05F
HUNTER AAF     MOSUNNY   83  74  75 S3        30.02F
FORT STEWART   SUNNY     80  73  80 CALM      30.03S
STATESBORO     SUNNY     80  77  92 CALM      30.06S
SYLVANIA         N/A     79  78  96 CALM      30.07S
CLAXTON        FAIR      80  77  90 CALM      30.06R

...CSRA...CENTRAL AND FAR SOUTHEAST GEORGIA...

CITY           SKY/WX    TMP DP  RH WIND       PRES   REMARKS
THOMSON        SUNNY     78  72  80 SE6       30.13R
AUGUSTA-BUSH   SUNNY     80  74  81 CALM      30.06R HAZE
AUGUSTA-DANIEL SUNNY     82  69  64 CALM      30.08R
SWAINSBORO     FAIR      81  70  69 NE3       30.08R
VIDALIA        SUNNY     81  72  74 NE3       30.07R
EASTMAN        FAIR      78  70  77 CALM      30.09R
HAZLEHURST     FAIR      81  65  58 N3        30.05R
ALMA           SUNNY     81  75  82 CALM      30.05R
WAYCROSS       SUNNY     80  76  86 CALM      30.05R
JESUP          NOT AVBL
BAXLEY         FAIR      77  73  88 CALM      30.05R
BRUNSWICK      SUNNY     82  72  69 CALM      30.06R
SAINT SIMONS   SUNNY     83  76  79 SW3       30.05R HX  91

$$

SCZ027-028-034-036>038-045-046-048>050-GAZ119-141-201400-
...LAKE AND SUPPLEMENTAL COASTAL OBSERVATIONS...

STATION/POSITION TIME  TEMP    WIND        PRES    WAVE   SWELL
                       AIR SEA DIR/SP/G            HT/PER HT/PER/DIR
                 (UTC) (F)     (DEG/KT/KT) (MB)    (FT/S) (FT/S/D)
WINYAH BAY       1145   80     240/  3     1017.0
LAKE MURRAY      1220   79      CALM  /  3 1017.3
ACE BASIN NERRS  1145   80        CALM     1018.0
FORT PULASKI     1248   83 87  330/  3/  4 1017.9F
SAPELO ISLAND    1200   81        CALM     1017.0

$$

ANZ835-935-AMZ111-154-330-350-352-354-370-450-454-472-201400-
...C-MAN AND BUOY OBSERVATIONS...

STATION/POSITION TIME  TEMP    WIND        PRES    WAVE   SWELL
                       AIR SEA DIR/SP/G            HT/PER HT/PER/DIR
                 (UTC) (F)     (DEG/KT/KT) (MB)    (FT/S) (FT/S/D)
BUOY 41004       1250   84 84  240/ 10/ 10 1017.5R   3/ 9   2/130/ 9
BUOY 41008       1250   84 85  210/  8/ 10 1017.2R   3/ 8   2/120/ 8
FOLLY BEACH CMAN 1200   84     250/  2/  2 1018.3R
CAPERS NEARSHORE 1208   83 86  230/  8/ 12 1017.5R
FRIPP NEARSHORE  1208   80     210/ 10/ 14 1017.0R


STATION/POSITION TIME  TEMP    WIND        PRES    WAVE   SWELL
                       AIR SEA DIR/SP/G            HT/PER HT/PER/DIR
                 (UTC) (F)     (DEG/KT/KT) (MB)    (FT/S) (FT/S/D)
5E ST. MARYS GA  1230      84                N/A     3/ 9
FRYING PAN BUOY  1250   83 84  250/  6/ 10 1017.8R   3/ 8   3/130/ 8
BUOY 41025       1250   80 82  260/ 10/ 12 1017.9F   3/ 9   2/120/ 9
CAPE LOOKOUT NC  1200   76      70/ 13/ 15 1017.8R
BUOY 41002       1250   79 84  170/ 12/ 16 1019.5R   3/ 8   2/100/ 8
BUOY 41010       1250   83 85  170/ 12/ 21 1017.2R   3/ 9   2/110/ 9
ST AUGUSTINE FL  1300   80 80  160/  4/  5 1017.8R


$$



USA.gov is the U.S. government's official web portal to all federal, state and local government web resources and services.